Time,TemperatureF,DewpointF,PressureIn,WindDirection,WindDirectionDegrees,WindSpeedMPH,WindSpeedGustMPH,Humidity,HourlyPrecipIn,Conditions,Clouds,dailyrainin,SoftwareType,DateUTC
2013-04-04 00:00:00,30.8,21.4,29.77,SSW,203,10.3,10.3,68,0.00,,,0.00,WUHU216HW,2013-04-04 05:00:00,
2013-04-04 00:05:00,30.8,21.1,29.77,South,180,6.9,10.3,67,0.00,,,0.00,WUHU216HW,2013-04-04 05:05:00,
2013-04-04 00:10:00,30.8,21.4,29.76,SSW,203,8.5,10.3,68,0.00,,,0.00,WUHU216HW,2013-04-04 05:10:00,
2013-04-04 00:15:00,30.8,21.4,29.76,SW,225,9.2,13.2,68,0.00,,,0.00,WUHU216HW,2013-04-04 05:15:00,
2013-04-04 00:20:00,30.6,21.6,29.76,SW,225,8.5,13.2,69,0.00,,,0.00,WUHU216HW,2013-04-04 05:20:00,
2013-04-04 00:25:00,30.6,21.6,29.76,SSW,203,9.4,9.8,69,0.00,,,0.00,WUHU216HW,2013-04-04 05:25:00,
2013-04-04 00:30:00,30.6,21.2,29.76,SSW,203,6.9,9.8,68,0.00,,,0.00,WUHU216HW,2013-04-04 05:30:00,
2013-04-04 00:35:00,30.6,21.6,29.76,SW,225,7.2,9.4,69,0.00,,,0.00,WUHU216HW,2013-04-04 05:35:00,
2013-04-04 00:40:00,30.6,21.6,29.76,SSW,203,8.1,8.1,69,0.00,,,0.00,WUHU216HW,2013-04-04 05:40:00,
2013-04-04 00:45:00,30.4,21.4,29.76,SSW,203,7.2,8.1,69,0.00,,,0.00,WUHU216HW,2013-04-04 05:45:00,
2013-04-04 00:50:00,30.4,21.8,29.76,SSW,203,8.3,8.3,70,0.00,,,0.00,WUHU216HW,2013-04-04 05:50:00,
2013-04-04 00:55:00,30.2,21.6,29.76,SSW,203,8.5,8.5,70,0.00,,,0.00,WUHU216HW,2013-04-04 05:55:00,
2013-04-04 01:00:00,30.2,21.6,29.75,SSW,203,6.5,8.5,70,0.00,,,0.00,WUHU216HW,2013-04-04 06:00:00,
2013-04-04 01:05:00,30.2,21.6,29.75,South,180,9.2,9.2,70,0.00,,,0.00,WUHU216HW,2013-04-04 06:05:00,
2013-04-04 01:10:00,30.2,21.6,29.75,SSW,203,8.5,9.2,70,0.00,,,0.00,WUHU216HW,2013-04-04 06:10:00,
2013-04-04 01:15:00,30.2,21.2,29.75,SSW,203,6.3,9.2,69,0.00,,,0.00,WUHU216HW,2013-04-04 06:15:00,
2013-04-04 01:20:00,30.2,21.6,29.75,SSW,203,6.3,8.9,70,0.00,,,0.00,WUHU216HW,2013-04-04 06:20:00,
2013-04-04 01:25:00,30.1,21.4,29.75,South,180,6.3,8.5,70,0.00,,,0.00,WUHU216HW,2013-04-04 06:25:00,
2013-04-04 01:30:00,30.1,21.4,29.74,SSW,203,7.4,8.7,70,0.00,,,0.00,WUHU216HW,2013-04-04 06:30:00,
2013-04-04 01:35:00,30.1,21.4,29.74,SSW,203,7.2,8.7,70,0.00,,,0.00,WUHU216HW,2013-04-04 06:35:00,
2013-04-04 01:40:00,30.1,21.4,29.74,SW,225,6.9,8.3,70,0.00,,,0.00,WUHU216HW,2013-04-04 06:40:00,
2013-04-04 01:45:00,30.1,21.4,29.74,SSW,203,4.9,8.3,70,0.00,,,0.00,WUHU216HW,2013-04-04 06:45:00,
2013-04-04 01:50:00,30.1,21.4,29.74,SSW,203,8.1,8.5,70,0.00,,,0.00,WUHU216HW,2013-04-04 06:50:00,
2013-04-04 01:55:00,30.1,21.8,29.74,SSW,203,7.4,8.5,71,0.00,,,0.00,WUHU216HW,2013-04-04 06:55:00,
2013-04-04 02:00:00,30.1,21.8,29.73,SSW,203,7.6,8.5,71,0.00,,,0.00,WUHU216HW,2013-04-04 07:00:00,
2013-04-04 02:05:00,29.9,21.6,29.73,SSW,203,6.3,8.5,71,0.00,,,0.00,WUHU216HW,2013-04-04 07:05:00,
2013-04-04 02:10:00,29.9,21.6,29.73,SSW,203,6.7,9.2,71,0.00,,,0.00,WUHU216HW,2013-04-04 07:10:00,
2013-04-04 02:15:00,29.9,21.6,29.73,SW,225,6.3,9.2,71,0.00,,,0.00,WUHU216HW,2013-04-04 07:15:00,
2013-04-04 02:20:00,30.1,21.4,29.72,SW,225,4.9,8.7,70,0.00,,,0.00,WUHU216HW,2013-04-04 07:20:00,
2013-04-04 02:25:00,30.1,21.4,29.72,SSW,203,5.8,7.6,70,0.00,,,0.00,WUHU216HW,2013-04-04 07:25:00,
2013-04-04 02:30:00,30.1,21.4,29.71,SW,225,6.9,7.6,70,0.00,,,0.00,WUHU216HW,2013-04-04 07:30:00,
2013-04-04 02:35:00,30.1,21.4,29.71,SW,225,7.2,8.5,70,0.00,,,0.00,WUHU216HW,2013-04-04 07:35:00,
2013-04-04 02:40:00,30.1,21.4,29.71,SW,225,9.2,9.4,70,0.00,,,0.00,WUHU216HW,2013-04-04 07:40:00,
2013-04-04 02:45:00,30.2,21.6,29.70,SSW,203,7.2,9.4,70,0.00,,,0.00,WUHU216HW,2013-04-04 07:45:00,
2013-04-04 02:50:00,30.2,21.6,29.70,SSW,203,8.3,9.4,70,0.00,,,0.00,WUHU216HW,2013-04-04 07:50:00,
2013-04-04 02:55:00,30.2,21.6,29.70,SSW,203,6.9,9.4,70,0.00,,,0.00,WUHU216HW,2013-04-04 07:55:00,
2013-04-04 03:00:00,30.2,21.6,29.70,SSW,203,8.5,8.5,70,0.00,,,0.00,WUHU216HW,2013-04-04 08:00:00,
2013-04-04 03:05:00,30.2,21.6,29.70,SSW,203,9.8,9.8,70,0.00,,,0.00,WUHU216HW,2013-04-04 08:05:00,
2013-04-04 03:10:00,30.1,21.4,29.70,SW,225,6.9,9.8,70,0.00,,,0.00,WUHU216HW,2013-04-04 08:10:00,
2013-04-04 03:15:00,30.1,21.8,29.70,SSW,203,7.4,9.8,71,0.00,,,0.00,WUHU216HW,2013-04-04 08:15:00,
2013-04-04 03:20:00,29.9,21.2,29.70,SSW,203,6.5,10.5,70,0.00,,,0.00,WUHU216HW,2013-04-04 08:20:00,
2013-04-04 03:25:00,30.1,21.4,29.70,SSW,203,6.3,10.5,70,0.00,,,0.00,WUHU216HW,2013-04-04 08:25:00,
2013-04-04 03:30:00,29.9,21.2,29.69,SSW,203,5.1,9.2,70,0.00,,,0.00,WUHU216HW,2013-04-04 08:30:00,
2013-04-04 03:35:00,29.9,21.2,29.70,South,180,4.9,6.9,70,0.00,,,0.00,WUHU216HW,2013-04-04 08:35:00,
2013-04-04 03:40:00,29.9,21.2,29.69,South,180,3.6,5.8,70,0.00,,,0.00,WUHU216HW,2013-04-04 08:40:00,
2013-04-04 03:45:00,29.9,21.2,29.70,SSW,203,4.7,6.9,70,0.00,,,0.00,WUHU216HW,2013-04-04 08:45:00,
2013-04-04 03:50:00,29.9,21.2,29.70,SW,225,6.5,6.9,70,0.00,,,0.00,WUHU216HW,2013-04-04 08:50:00,
2013-04-04 03:55:00,29.9,21.2,29.70,SSW,203,6.9,6.9,70,0.00,,,0.00,WUHU216HW,2013-04-04 08:55:00,
2013-04-04 04:00:00,29.9,21.2,29.69,SSW,203,5.8,6.9,70,0.00,,,0.00,WUHU216HW,2013-04-04 09:00:00,
2013-04-04 04:05:00,29.9,21.2,29.69,SSW,203,6.7,6.9,70,0.00,,,0.00,WUHU216HW,2013-04-04 09:05:00,
2013-04-04 04:10:00,29.9,21.2,29.69,SSW,203,5.8,7.6,70,0.00,,,0.00,WUHU216HW,2013-04-04 09:10:00,
2013-04-04 04:15:00,29.9,21.2,29.69,SW,225,4.5,7.6,70,0.00,,,0.00,WUHU216HW,2013-04-04 09:15:00,
2013-04-04 04:20:00,29.9,21.2,29.69,SSW,203,6.9,6.9,70,0.00,,,0.00,WUHU216HW,2013-04-04 09:20:00,
2013-04-04 04:25:00,29.9,21.2,29.68,SSW,203,4.9,8.5,70,0.00,,,0.00,WUHU216HW,2013-04-04 09:25:00,
2013-04-04 04:30:00,29.9,21.2,29.68,SSW,203,4.7,8.5,70,0.00,,,0.00,WUHU216HW,2013-04-04 09:30:00,
2013-04-04 04:35:00,29.9,21.2,29.68,SW,225,4.9,6.9,70,0.00,,,0.00,WUHU216HW,2013-04-04 09:35:00,
2013-04-04 04:40:00,29.9,21.2,29.68,SW,225,6.0,6.5,70,0.00,,,0.00,WUHU216HW,2013-04-04 09:40:00,
2013-04-04 04:45:00,29.9,21.2,29.69,SW,225,6.3,7.6,70,0.00,,,0.00,WUHU216HW,2013-04-04 09:45:00,
2013-04-04 04:50:00,29.9,20.9,29.69,SW,225,6.5,7.6,69,0.00,,,0.00,WUHU216HW,2013-04-04 09:50:00,
2013-04-04 04:55:00,29.9,21.2,29.69,SW,225,5.4,6.5,70,0.00,,,0.00,WUHU216HW,2013-04-04 09:55:00,
2013-04-04 05:00:00,29.9,21.2,29.69,SSW,203,6.3,6.5,70,0.00,,,0.00,WUHU216HW,2013-04-04 10:00:00,
2013-04-04 05:05:00,29.9,21.2,29.69,SW,225,6.3,8.3,70,0.00,,,0.00,WUHU216HW,2013-04-04 10:05:00,
2013-04-04 05:10:00,29.9,21.2,29.68,SW,225,5.4,8.3,70,0.00,,,0.00,WUHU216HW,2013-04-04 10:10:00,
2013-04-04 05:15:00,29.9,21.2,29.68,SSW,203,6.9,7.2,70,0.00,,,0.00,WUHU216HW,2013-04-04 10:15:00,
2013-04-04 05:20:00,29.9,21.2,29.68,SSW,203,6.3,7.2,70,0.00,,,0.00,WUHU216HW,2013-04-04 10:20:00,
2013-04-04 05:25:00,29.9,21.2,29.68,SW,225,6.7,7.6,70,0.00,,,0.00,WUHU216HW,2013-04-04 10:25:00,
2013-04-04 05:31:00,29.9,21.2,29.68,SW,225,6.7,7.6,70,0.00,,,0.00,WUHU216HW,2013-04-04 10:31:00,
2013-04-04 05:36:00,29.9,21.2,29.68,SSW,203,9.6,9.6,70,0.00,,,0.00,WUHU216HW,2013-04-04 10:36:00,
2013-04-04 05:41:00,29.9,21.2,29.68,SSW,203,10.5,10.5,70,0.00,,,0.00,WUHU216HW,2013-04-04 10:41:00,
2013-04-04 05:46:00,29.9,21.2,29.68,SSW,203,6.9,10.5,70,0.00,,,0.00,WUHU216HW,2013-04-04 10:46:00,
2013-04-04 05:51:00,30.1,21.4,29.68,SW,225,5.6,10.5,70,0.00,,,0.00,WUHU216HW,2013-04-04 10:51:00,
2013-04-04 05:56:00,29.9,21.2,29.67,SSW,203,9.2,9.2,70,0.00,,,0.00,WUHU216HW,2013-04-04 10:56:00,
2013-04-04 06:01:00,30.1,21.4,29.67,SW,225,9.4,9.4,70,0.00,,,0.00,WUHU216HW,2013-04-04 11:01:00,
2013-04-04 06:07:00,30.1,21.4,29.67,SSW,203,5.4,9.4,70,0.00,,,0.00,WUHU216HW,2013-04-04 11:07:00,
2013-04-04 06:12:00,30.1,21.4,29.67,South,180,7.2,9.4,70,0.00,,,0.00,WUHU216HW,2013-04-04 11:12:00,
2013-04-04 06:17:00,30.2,21.6,29.67,SSW,203,6.7,10.5,70,0.00,,,0.00,WUHU216HW,2013-04-04 11:17:00,
2013-04-04 06:22:00,30.2,21.6,29.67,SSW,203,6.9,10.5,70,0.00,,,0.00,WUHU216HW,2013-04-04 11:22:00,
2013-04-04 06:27:00,30.2,21.6,29.67,SW,225,7.2,10.3,70,0.00,,,0.00,WUHU216HW,2013-04-04 11:27:00,
2013-04-04 06:32:00,30.2,21.6,29.67,SW,225,7.6,10.3,70,0.00,,,0.00,WUHU216HW,2013-04-04 11:32:00,
2013-04-04 06:37:00,30.2,21.6,29.66,SSW,203,6.9,10.3,70,0.00,,,0.00,WUHU216HW,2013-04-04 11:37:00,
2013-04-04 06:42:00,30.4,21.8,29.66,SW,225,6.3,9.8,70,0.00,,,0.00,WUHU216HW,2013-04-04 11:42:00,
2013-04-04 06:47:00,30.6,22.0,29.66,SW,225,7.8,9.8,70,0.00,,,0.00,WUHU216HW,2013-04-04 11:47:00,
2013-04-04 06:52:00,30.8,22.1,29.65,SW,225,7.6,9.2,70,0.00,,,0.00,WUHU216HW,2013-04-04 11:52:00,
2013-04-04 06:57:00,30.8,22.1,29.65,SW,225,7.6,9.2,70,0.00,,,0.00,WUHU216HW,2013-04-04 11:57:00,
2013-04-04 07:02:00,31.0,22.3,29.66,South,180,8.1,8.3,70,0.00,,,0.00,WUHU216HW,2013-04-04 12:02:00,
2013-04-04 07:07:00,31.1,22.5,29.65,SW,225,6.9,8.1,70,0.00,,,0.00,WUHU216HW,2013-04-04 12:07:00,
2013-04-04 07:12:00,31.3,22.3,29.65,SW,225,7.4,8.5,69,0.00,,,0.00,WUHU216HW,2013-04-04 12:12:00,
2013-04-04 07:17:00,31.5,22.9,29.65,SW,225,6.9,10.3,70,0.00,,,0.00,WUHU216HW,2013-04-04 12:17:00,
2013-04-04 07:22:00,31.9,22.9,29.65,SSW,203,7.2,10.3,69,0.00,,,0.00,WUHU216HW,2013-04-04 12:22:00,
2013-04-04 07:27:00,32.0,23.0,29.65,SW,225,14.3,14.3,69,0.00,,,0.00,WUHU216HW,2013-04-04 12:27:00,
2013-04-04 07:32:00,32.8,23.3,29.65,SSW,203,7.6,14.3,68,0.00,,,0.00,WUHU216HW,2013-04-04 12:32:00,
2013-04-04 07:37:00,32.9,23.1,29.65,SSE,158,8.7,14.3,67,0.00,,,0.00,WUHU216HW,2013-04-04 12:37:00,
2013-04-04 07:42:00,33.3,23.5,29.64,SW,225,7.6,9.6,67,0.00,,,0.00,WUHU216HW,2013-04-04 12:42:00,
2013-04-04 07:47:00,33.5,23.6,29.65,SW,225,9.6,9.6,67,0.00,,,0.00,WUHU216HW,2013-04-04 12:47:00,
2013-04-04 07:53:00,34.0,23.0,29.64,SSW,203,10.7,10.7,64,0.00,,,0.00,WUHU216HW,2013-04-04 12:53:00,
2013-04-04 07:58:00,34.2,23.6,29.64,SW,225,8.7,10.7,65,0.00,,,0.00,WUHU216HW,2013-04-04 12:58:00,
2013-04-04 08:03:00,34.6,23.6,29.64,SW,225,8.7,10.7,64,0.00,,,0.00,WUHU216HW,2013-04-04 13:03:00,
2013-04-04 08:08:00,34.9,24.3,29.63,SSW,203,6.9,9.4,65,0.00,,,0.00,WUHU216HW,2013-04-04 13:08:00,
2013-04-04 08:13:00,34.9,23.9,29.63,SSW,203,11.0,11.0,64,0.00,,,0.00,WUHU216HW,2013-04-04 13:13:00,
2013-04-04 08:18:00,35.3,23.9,29.63,SSW,203,9.4,11.0,63,0.00,,,0.00,WUHU216HW,2013-04-04 13:18:00,
2013-04-04 08:23:00,35.3,23.9,29.63,SSW,203,14.3,14.3,63,0.00,,,0.00,WUHU216HW,2013-04-04 13:23:00,
2013-04-04 08:28:00,35.6,24.3,29.63,SSW,203,10.5,14.3,63,0.00,,,0.00,WUHU216HW,2013-04-04 13:28:00,
2013-04-04 08:33:00,35.8,24.5,29.62,SW,225,12.5,14.3,63,0.00,,,0.00,WUHU216HW,2013-04-04 13:33:00,
2013-04-04 08:38:00,36.2,25.2,29.62,SSW,203,9.4,12.5,64,0.00,,,0.00,WUHU216HW,2013-04-04 13:38:00,
2013-04-04 08:43:00,36.4,24.9,29.61,SW,225,11.4,12.5,63,0.00,,,0.00,WUHU216HW,2013-04-04 13:43:00,
2013-04-04 08:48:00,36.5,24.8,29.61,SW,225,11.6,11.6,62,0.00,,,0.00,WUHU216HW,2013-04-04 13:48:00,
2013-04-04 08:53:00,36.9,25.1,29.61,SSW,203,9.2,13.2,62,0.00,,,0.00,WUHU216HW,2013-04-04 13:53:00,
2013-04-04 08:58:00,37.3,25.0,29.61,SW,225,11.4,13.2,61,0.00,,,0.00,WUHU216HW,2013-04-04 13:58:00,
2013-04-04 09:03:00,37.3,25.0,29.61,WSW,248,12.5,12.5,61,0.00,,,0.00,WUHU216HW,2013-04-04 14:03:00,
2013-04-04 09:08:00,37.8,25.6,29.61,SW,225,6.5,12.5,61,0.00,,,0.00,WUHU216HW,2013-04-04 14:08:00,
2013-04-04 09:13:00,38.0,25.8,29.61,SW,225,9.4,12.5,61,0.00,,,0.00,WUHU216HW,2013-04-04 14:13:00,
2013-04-04 09:18:00,38.5,26.2,29.61,SSW,203,10.7,10.7,61,0.00,,,0.00,WUHU216HW,2013-04-04 14:18:00,
2013-04-04 09:23:00,38.5,25.8,29.60,WSW,248,10.7,10.7,60,0.00,,,0.00,WUHU216HW,2013-04-04 14:23:00,
2013-04-04 09:28:00,38.9,26.1,29.60,WSW,248,7.4,11.9,60,0.00,,,0.00,WUHU216HW,2013-04-04 14:28:00,
2013-04-04 09:33:00,39.1,25.8,29.61,SW,225,9.6,11.9,59,0.00,,,0.00,WUHU216HW,2013-04-04 14:33:00,
2013-04-04 09:38:00,39.2,26.0,29.61,SW,225,7.6,13.9,59,0.00,,,0.00,WUHU216HW,2013-04-04 14:38:00,
2013-04-04 09:43:00,39.6,25.9,29.61,SW,225,8.3,13.9,58,0.00,,,0.00,WUHU216HW,2013-04-04 14:43:00,
2013-04-04 09:48:00,40.0,26.7,29.60,SSW,203,11.4,11.4,59,0.00,,,0.00,WUHU216HW,2013-04-04 14:48:00,
2013-04-04 09:53:00,40.5,26.4,29.60,SW,225,7.2,11.4,57,0.00,,,0.00,WUHU216HW,2013-04-04 14:53:00,
2013-04-04 09:58:00,40.9,27.6,29.60,SW,225,9.2,11.2,59,0.00,,,0.00,WUHU216HW,2013-04-04 14:58:00,
2013-04-04 10:03:00,41.6,26.6,29.60,SSW,203,7.4,11.2,55,0.00,,,0.00,WUHU216HW,2013-04-04 15:03:00,
2013-04-04 10:08:00,41.6,26.1,29.59,WSW,248,13.0,13.6,54,0.00,,,0.00,WUHU216HW,2013-04-04 15:08:00,
2013-04-04 10:13:00,41.8,26.3,29.60,SSW,203,5.4,13.6,54,0.00,,,0.00,WUHU216HW,2013-04-04 15:13:00,
2013-04-04 10:18:00,41.9,26.9,29.60,WSW,248,14.5,14.5,55,0.00,,,0.00,WUHU216HW,2013-04-04 15:18:00,
2013-04-04 10:23:00,42.3,26.7,29.60,SW,225,8.7,14.5,54,0.00,,,0.00,WUHU216HW,2013-04-04 15:23:00,
2013-04-04 10:28:00,42.7,26.6,29.59,SW,225,8.9,14.5,53,0.00,,,0.00,WUHU216HW,2013-04-04 15:28:00,
2013-04-04 10:33:00,42.8,27.3,29.59,WSW,248,12.1,12.1,54,0.00,,,0.00,WUHU216HW,2013-04-04 15:33:00,
2013-04-04 10:38:00,42.8,27.7,29.59,SW,225,7.8,12.1,55,0.00,,,0.00,WUHU216HW,2013-04-04 15:38:00,
2013-04-04 10:43:00,43.4,27.4,29.59,SW,225,14.1,14.1,53,0.00,,,0.00,WUHU216HW,2013-04-04 15:43:00,
2013-04-04 10:48:00,43.6,27.6,29.59,SW,225,12.8,14.1,53,0.00,,,0.00,WUHU216HW,2013-04-04 15:48:00,
2013-04-04 10:53:00,43.7,27.7,29.58,SSW,203,10.5,14.1,53,0.00,,,0.00,WUHU216HW,2013-04-04 15:53:00,
2013-04-04 10:58:00,43.9,28.7,29.58,SW,225,7.6,12.8,55,0.00,,,0.00,WUHU216HW,2013-04-04 15:58:00,
2013-04-04 11:03:00,44.3,28.6,29.58,SSW,203,8.1,10.5,54,0.00,,,0.00,WUHU216HW,2013-04-04 16:03:00,
2013-04-04 11:08:00,45.0,29.4,29.58,WSW,248,8.3,8.3,54,0.00,,,0.00,WUHU216HW,2013-04-04 16:08:00,
2013-04-04 11:13:00,45.2,28.5,29.58,SW,225,12.1,12.8,52,0.00,,,0.00,WUHU216HW,2013-04-04 16:13:00,
2013-04-04 11:18:00,45.4,29.6,29.58,SW,225,6.9,12.8,54,0.00,,,0.00,WUHU216HW,2013-04-04 16:18:00,
2013-04-04 11:23:00,45.9,30.2,29.58,SSW,203,8.5,12.1,54,0.00,,,0.00,WUHU216HW,2013-04-04 16:23:00,
2013-04-04 11:29:00,46.1,28.9,29.57,WSW,248,9.8,11.2,51,0.00,,,0.00,WUHU216HW,2013-04-04 16:29:00,
2013-04-04 11:34:00,46.4,28.8,29.57,SW,225,7.2,11.2,50,0.00,,,0.00,WUHU216HW,2013-04-04 16:34:00,
2013-04-04 11:39:00,46.6,29.0,29.57,SW,225,10.5,10.5,50,0.00,,,0.00,WUHU216HW,2013-04-04 16:39:00,
2013-04-04 11:44:00,46.8,29.2,29.57,WSW,248,12.5,12.5,50,0.00,,,0.00,WUHU216HW,2013-04-04 16:44:00,
2013-04-04 11:49:00,47.0,30.3,29.56,NW,315,11.0,12.5,52,0.00,,,0.00,WUHU216HW,2013-04-04 16:49:00,
2013-04-04 11:54:00,47.5,31.6,29.56,WSW,248,7.8,12.5,54,0.00,,,0.00,WUHU216HW,2013-04-04 16:54:00,
2013-04-04 12:00:00,47.7,30.4,29.56,SSW,203,12.1,12.1,51,0.00,,,0.00,WUHU216HW,2013-04-04 17:00:00,
2013-04-04 12:05:00,47.7,31.3,29.55,WSW,248,10.1,12.1,53,0.00,,,0.00,WUHU216HW,2013-04-04 17:05:00,
2013-04-04 12:10:00,48.1,29.7,29.54,WSW,248,6.7,12.1,49,0.00,,,0.00,WUHU216HW,2013-04-04 17:10:00,
2013-04-04 12:15:00,48.6,32.1,29.54,SW,225,9.4,10.1,53,0.00,,,0.00,WUHU216HW,2013-04-04 17:15:00,
2013-04-04 12:20:00,48.8,31.4,29.54,WSW,248,10.7,10.7,51,0.00,,,0.00,WUHU216HW,2013-04-04 17:20:00,
2013-04-04 12:25:00,49.3,31.5,29.54,SW,225,9.6,10.7,50,0.00,,,0.00,WUHU216HW,2013-04-04 17:25:00,
2013-04-04 12:30:00,49.3,30.4,29.53,WSW,248,7.6,13.4,48,0.00,,,0.00,WUHU216HW,2013-04-04 17:30:00,
2013-04-04 12:35:00,49.9,31.5,29.53,SW,225,9.2,13.4,49,0.00,,,0.00,WUHU216HW,2013-04-04 17:35:00,
2013-04-04 12:40:00,49.9,32.5,29.53,SSW,203,8.7,9.2,51,0.00,,,0.00,WUHU216HW,2013-04-04 17:40:00,
2013-04-04 12:45:00,50.0,31.7,29.53,SSW,203,7.4,9.2,49,0.00,,,0.00,WUHU216HW,2013-04-04 17:45:00,
2013-04-04 12:50:00,50.8,32.3,29.53,SW,225,13.4,13.4,49,0.00,,,0.00,WUHU216HW,2013-04-04 17:50:00,
2013-04-04 12:55:00,50.6,30.5,29.52,WSW,248,13.9,13.9,46,0.00,,,0.00,WUHU216HW,2013-04-04 17:55:00,
2013-04-04 13:00:00,50.9,33.5,29.52,SW,225,5.4,13.9,51,0.00,,,0.00,WUHU216HW,2013-04-04 18:00:00,
2013-04-04 13:05:00,51.7,32.6,29.52,WSW,248,12.5,13.9,48,0.00,,,0.00,WUHU216HW,2013-04-04 18:05:00,
2013-04-04 13:10:00,52.0,31.8,29.52,WSW,248,9.8,12.5,46,0.00,,,0.00,WUHU216HW,2013-04-04 18:10:00,
2013-04-04 13:15:00,52.6,32.2,29.52,WSW,248,9.8,12.5,46,0.00,,,0.00,WUHU216HW,2013-04-04 18:15:00,
2013-04-04 13:20:00,52.7,32.9,29.52,SW,225,6.9,9.8,47,0.00,,,0.00,WUHU216HW,2013-04-04 18:20:00,
2013-04-04 13:25:00,52.9,32.6,29.51,SW,225,6.7,14.1,46,0.00,,,0.00,WUHU216HW,2013-04-04 18:25:00,
2013-04-04 13:30:00,52.9,32.1,29.51,WSW,248,14.3,14.3,45,0.00,,,0.00,WUHU216HW,2013-04-04 18:30:00,
2013-04-04 13:35:00,52.9,32.6,29.51,SW,225,9.4,15.4,46,0.00,,,0.00,WUHU216HW,2013-04-04 18:35:00,
2013-04-04 13:40:00,53.3,33.5,29.51,SW,225,8.9,15.4,47,0.00,,,0.00,WUHU216HW,2013-04-04 18:40:00,
2013-04-04 13:45:00,53.6,33.8,29.50,SSW,203,6.7,12.8,47,0.00,,,0.00,WUHU216HW,2013-04-04 18:45:00,
2013-04-04 13:50:00,54.0,33.6,29.50,SW,225,5.4,8.9,46,0.00,,,0.00,WUHU216HW,2013-04-04 18:50:00,
2013-04-04 13:55:00,54.4,33.8,29.50,WSW,248,10.3,10.7,46,0.00,,,0.00,WUHU216HW,2013-04-04 18:55:00,
2013-04-04 14:00:00,54.2,33.8,29.50,WSW,248,8.1,10.7,46,0.00,,,0.00,WUHU216HW,2013-04-04 19:00:00,
2013-04-04 14:05:00,54.9,36.0,29.49,SW,225,8.1,10.3,49,0.00,,,0.00,WUHU216HW,2013-04-04 19:05:00,
2013-04-04 14:10:00,54.5,33.0,29.49,WSW,248,7.4,9.4,44,0.00,,,0.00,WUHU216HW,2013-04-04 19:10:00,
2013-04-04 14:15:00,54.0,33.6,29.49,WSW,248,8.3,8.3,46,0.00,,,0.00,WUHU216HW,2013-04-04 19:15:00,
2013-04-04 14:20:00,53.1,32.8,29.49,WSW,248,9.8,9.8,46,0.00,,,0.00,WUHU216HW,2013-04-04 19:20:00,
2013-04-04 14:25:00,52.9,32.6,29.49,NNE,23,6.3,9.8,46,0.00,,,0.00,WUHU216HW,2013-04-04 19:25:00,
2013-04-04 14:30:00,52.9,32.6,29.49,WSW,248,7.2,9.8,46,0.00,,,0.00,WUHU216HW,2013-04-04 19:30:00,
2013-04-04 14:35:00,52.6,32.2,29.49,WSW,248,9.4,9.4,46,0.00,,,0.00,WUHU216HW,2013-04-04 19:35:00,
2013-04-04 14:40:00,52.2,32.0,29.49,WSW,248,3.8,9.4,46,0.00,,,0.00,WUHU216HW,2013-04-04 19:40:00,
2013-04-04 14:45:00,52.0,32.3,29.49,SW,225,5.1,9.4,47,0.00,,,0.00,WUHU216HW,2013-04-04 19:45:00,
2013-04-04 14:50:00,52.0,31.8,29.49,WSW,248,7.6,7.6,46,0.00,,,0.00,WUHU216HW,2013-04-04 19:50:00,
2013-04-04 14:55:00,52.2,32.5,29.49,West,270,10.3,10.3,47,0.00,,,0.00,WUHU216HW,2013-04-04 19:55:00,
2013-04-04 15:00:00,52.2,32.5,29.48,SSW,203,7.6,10.3,47,0.00,,,0.00,WUHU216HW,2013-04-04 20:00:00,
2013-04-04 15:05:00,52.6,33.4,29.48,WSW,248,7.6,10.3,48,0.00,,,0.00,WUHU216HW,2013-04-04 20:05:00,
2013-04-04 15:10:00,52.6,32.9,29.48,SW,225,6.7,7.6,47,0.00,,,0.00,WUHU216HW,2013-04-04 20:10:00,
2013-04-04 15:15:00,52.6,32.9,29.48,WSW,248,8.7,10.3,47,0.00,,,0.00,WUHU216HW,2013-04-04 20:15:00,
2013-04-04 15:20:00,52.7,32.9,29.48,West,270,6.3,10.3,47,0.00,,,0.00,WUHU216HW,2013-04-04 20:20:00,
2013-04-04 15:25:00,53.1,33.8,29.48,SW,225,5.4,10.5,48,0.00,,,0.00,WUHU216HW,2013-04-04 20:25:00,
2013-04-04 15:30:00,53.6,33.2,29.48,WSW,248,7.8,10.5,46,0.00,,,0.00,WUHU216HW,2013-04-04 20:30:00,
2013-04-04 15:35:00,54.0,34.1,29.47,SW,225,6.3,7.8,47,0.00,,,0.00,WUHU216HW,2013-04-04 20:35:00,
2013-04-04 15:40:00,54.7,34.7,29.47,NW,315,9.2,9.2,47,0.00,,,0.00,WUHU216HW,2013-04-04 20:40:00,
2013-04-04 15:45:00,54.4,34.5,29.47,NNW,338,3.6,9.2,47,0.00,,,0.00,WUHU216HW,2013-04-04 20:45:00,
2013-04-04 15:50:00,54.5,34.6,29.47,WNW,293,5.1,9.2,47,0.00,,,0.00,WUHU216HW,2013-04-04 20:50:00,
2013-04-04 15:56:00,54.7,34.7,29.47,West,270,4.3,13.0,47,0.00,,,0.00,WUHU216HW,2013-04-04 20:56:00,
2013-04-04 16:01:00,54.9,34.9,29.47,NW,315,8.1,13.0,47,0.00,,,0.00,WUHU216HW,2013-04-04 21:01:00,
2013-04-04 16:05:00,55.1,36.2,29.47,NNW,338,9.2,9.4,49,0.00,,,0.00,WUHU216HW,2013-04-04 21:05:00,
2013-04-04 16:10:00,55.3,35.3,29.48,NW,315,10.3,10.3,47,0.00,,,0.00,WUHU216HW,2013-04-04 21:10:00,
2013-04-04 16:15:00,55.3,35.8,29.47,NNW,338,7.8,11.9,48,0.00,,,0.00,WUHU216HW,2013-04-04 21:15:00,
2013-04-04 16:20:00,55.1,35.1,29.48,West,270,11.0,12.1,47,0.00,,,0.00,WUHU216HW,2013-04-04 21:20:00,
2013-04-04 16:25:00,55.4,36.0,29.48,SW,225,6.9,12.1,48,0.00,,,0.00,WUHU216HW,2013-04-04 21:25:00,
2013-04-04 16:30:00,55.4,36.0,29.48,NW,315,15.0,15.0,48,0.00,,,0.00,WUHU216HW,2013-04-04 21:30:00,
2013-04-04 16:35:00,54.9,35.5,29.48,WNW,293,9.2,15.0,48,0.00,,,0.00,WUHU216HW,2013-04-04 21:35:00,
2013-04-04 16:40:00,54.9,35.5,29.48,NW,315,10.5,15.0,48,0.00,,,0.00,WUHU216HW,2013-04-04 21:40:00,
2013-04-04 16:45:00,55.1,36.2,29.48,WSW,248,8.1,10.5,49,0.00,,,0.00,WUHU216HW,2013-04-04 21:45:00,
2013-04-04 16:50:00,55.3,36.4,29.48,West,270,7.4,10.5,49,0.00,,,0.00,WUHU216HW,2013-04-04 21:50:00,
2013-04-04 16:55:00,55.4,36.6,29.48,NW,315,8.9,11.2,49,0.00,,,0.00,WUHU216HW,2013-04-04 21:55:00,
2013-04-04 17:00:00,55.3,36.9,29.48,WNW,293,7.2,11.2,50,0.00,,,0.00,WUHU216HW,2013-04-04 22:00:00,
2013-04-04 17:05:00,54.9,36.6,29.48,NW,315,5.8,8.9,50,0.00,,,0.00,WUHU216HW,2013-04-04 22:05:00,
2013-04-04 17:11:00,54.7,36.5,29.48,NNW,338,9.2,9.2,50,0.00,,,0.00,WUHU216HW,2013-04-04 22:11:00,
2013-04-04 17:16:00,54.4,36.1,29.48,WNW,293,12.1,12.1,50,0.00,,,0.00,WUHU216HW,2013-04-04 22:16:00,
2013-04-04 17:21:00,53.8,35.7,29.48,NW,315,5.1,12.1,50,0.00,,,0.00,WUHU216HW,2013-04-04 22:21:00,
2013-04-04 17:27:00,53.6,35.5,29.48,SW,225,8.5,12.1,50,0.00,,,0.00,WUHU216HW,2013-04-04 22:27:00,
2013-04-04 17:32:00,53.6,35.9,29.48,NW,315,6.3,8.5,51,0.00,,,0.00,WUHU216HW,2013-04-04 22:32:00,
2013-04-04 17:37:00,53.5,35.3,29.49,NW,315,7.8,12.1,50,0.00,,,0.00,WUHU216HW,2013-04-04 22:37:00,
2013-04-04 17:42:00,53.1,35.0,29.48,NW,315,4.7,12.1,50,0.00,,,0.00,WUHU216HW,2013-04-04 22:42:00,
2013-04-04 17:47:00,53.5,35.7,29.49,WNW,293,11.4,11.4,51,0.00,,,0.00,WUHU216HW,2013-04-04 22:47:00,
2013-04-04 17:52:00,53.8,36.1,29.49,WNW,293,8.7,11.4,51,0.00,,,0.00,WUHU216HW,2013-04-04 22:52:00,
2013-04-04 17:57:00,54.2,35.9,29.49,NW,315,8.3,11.4,50,0.00,,,0.00,WUHU216HW,2013-04-04 22:57:00,
2013-04-04 18:02:00,54.5,36.3,29.49,WNW,293,6.3,8.7,50,0.00,,,0.00,WUHU216HW,2013-04-04 23:02:00,
2013-04-04 18:07:00,54.4,36.1,29.49,NNW,338,6.0,8.3,50,0.00,,,0.00,WUHU216HW,2013-04-04 23:07:00,
2013-04-04 18:12:00,52.6,35.4,29.50,North,0,3.4,6.3,52,0.00,,,0.00,WUHU216HW,2013-04-04 23:12:00,
2013-04-04 18:17:00,52.0,34.9,29.50,NW,315,6.3,6.3,52,0.00,,,0.00,WUHU216HW,2013-04-04 23:17:00,
2013-04-04 18:18:00,52.0,34.9,29.50,NW,315,6.3,6.3,52,0.00,,,0.00,WUHU216HW,2013-04-04 23:18:00,
2013-04-04 18:22:00,52.0,34.9,29.50,NW,315,6.3,6.3,52,0.00,,,0.00,WUHU216HW,2013-04-04 23:22:00,
2013-04-04 18:27:00,52.0,34.9,29.50,NW,315,6.3,6.3,52,0.00,,,0.00,WUHU216HW,2013-04-04 23:27:00,
2013-04-04 18:48:00,50.0,34.9,29.50,NNW,338,5.8,5.8,56,0.00,,,0.00,WUHU216HW,2013-04-04 23:48:00,
2013-04-04 18:53:00,50.0,34.9,29.50,NNW,338,5.8,5.8,56,0.00,,,0.00,WUHU216HW,2013-04-04 23:53:00,
2013-04-04 19:00:00,49.0,34.8,29.50,NNW,338,1.8,1.8,58,0.00,,,0.00,WUHU216HW,2013-04-05 00:00:00,
2013-04-04 19:05:00,49.0,34.8,29.50,NNW,338,1.8,1.8,58,0.00,,,0.00,WUHU216HW,2013-04-05 00:05:00,
2013-04-04 19:30:00,46.4,33.3,29.50,NNW,338,1.8,1.8,60,0.00,,,0.00,WUHU216HW,2013-04-05 00:30:00,
2013-04-04 19:35:00,46.4,33.3,29.50,NNW,338,1.8,1.8,60,0.00,,,0.00,WUHU216HW,2013-04-05 00:35:00,
2013-04-04 20:00:00,44.6,32.9,29.50,North,0,2.0,2.0,63,0.00,,,0.00,WUHU216HW,2013-04-05 01:00:00,
2013-04-04 20:05:00,44.6,32.9,29.50,North,0,2.0,2.0,63,0.00,,,0.00,WUHU216HW,2013-04-05 01:05:00,
2013-04-04 20:30:00,43.0,31.7,29.52,NW,315,2.5,2.5,64,0.00,,,0.00,WUHU216HW,2013-04-05 01:30:00,
2013-04-04 20:35:00,43.0,31.7,29.52,NW,315,2.5,2.5,64,0.00,,,0.00,WUHU216HW,2013-04-05 01:35:00,
2013-04-04 21:00:00,41.9,30.6,29.52,NW,315,2.9,2.9,64,0.00,,,0.00,WUHU216HW,2013-04-05 02:00:00,
2013-04-04 21:05:00,41.9,30.6,29.52,NW,315,2.9,2.9,64,0.00,,,0.00,WUHU216HW,2013-04-05 02:05:00,
2013-04-04 21:24:00,41.4,29.7,29.53,NW,315,2.9,2.9,63,0.00,,,0.00,WUHU216HW,2013-04-05 02:24:00,
2013-04-04 21:29:00,41.4,29.7,29.54,NNW,338,3.4,4.0,63,0.00,,,0.00,WUHU216HW,2013-04-05 02:29:00,
2013-04-04 21:34:00,41.2,30.0,29.54,NW,315,6.0,6.0,64,0.00,,,0.00,WUHU216HW,2013-04-05 02:34:00,
2013-04-04 21:39:00,41.0,29.4,29.54,NW,315,4.0,6.0,63,0.00,,,0.00,WUHU216HW,2013-04-05 02:39:00,
2013-04-04 21:44:00,41.2,29.5,29.54,NNW,338,3.8,6.0,63,0.00,,,0.00,WUHU216HW,2013-04-05 02:44:00,
2013-04-04 21:50:00,41.0,29.4,29.55,NW,315,3.6,4.0,63,0.00,,,0.00,WUHU216HW,2013-04-05 02:50:00,
2013-04-04 21:55:00,41.0,29.4,29.55,NNW,338,3.8,4.9,63,0.00,,,0.00,WUHU216HW,2013-04-05 02:55:00,
2013-04-04 22:00:00,40.5,28.9,29.55,WNW,293,4.3,4.9,63,0.00,,,0.00,WUHU216HW,2013-04-05 03:00:00,
2013-04-04 22:05:00,40.5,28.9,29.55,NW,315,4.0,4.7,63,0.00,,,0.00,WUHU216HW,2013-04-05 03:05:00,
2013-04-04 22:10:00,40.1,28.9,29.55,NNW,338,4.3,5.1,64,0.00,,,0.00,WUHU216HW,2013-04-05 03:10:00,
2013-04-04 22:15:00,40.1,28.9,29.55,NW,315,4.3,5.1,64,0.00,,,0.00,WUHU216HW,2013-04-05 03:15:00,
2013-04-04 22:20:00,40.0,28.7,29.55,NNW,338,4.3,4.5,64,0.00,,,0.00,WUHU216HW,2013-04-05 03:20:00,
2013-04-04 22:25:00,40.0,28.4,29.55,NW,315,7.2,7.2,63,0.00,,,0.00,WUHU216HW,2013-04-05 03:25:00,
2013-04-04 22:30:00,39.6,28.4,29.55,NNW,338,5.8,7.2,64,0.00,,,0.00,WUHU216HW,2013-04-05 03:30:00,
2013-04-04 22:35:00,39.6,28.4,29.55,NNW,338,4.5,5.8,64,0.00,,,0.00,WUHU216HW,2013-04-05 03:35:00,
2013-04-04 22:40:00,39.6,28.0,29.55,NNW,338,4.3,5.8,63,0.00,,,0.00,WUHU216HW,2013-04-05 03:40:00,
2013-04-04 22:45:00,39.8,28.2,29.55,NW,315,2.5,6.5,63,0.00,,,0.00,WUHU216HW,2013-04-05 03:45:00,
2013-04-04 22:50:00,39.6,28.0,29.55,NNW,338,5.1,6.5,63,0.00,,,0.00,WUHU216HW,2013-04-05 03:50:00,
2013-04-04 22:55:00,39.6,28.0,29.55,NNW,338,4.0,5.1,63,0.00,,,0.00,WUHU216HW,2013-04-05 03:55:00,
2013-04-04 23:00:00,39.6,28.0,29.55,NNW,338,4.3,6.7,63,0.00,,,0.00,WUHU216HW,2013-04-05 04:00:00,
2013-04-04 23:05:00,39.4,27.8,29.56,NW,315,5.4,6.7,63,0.00,,,0.00,WUHU216HW,2013-04-05 04:05:00,
2013-04-04 23:10:00,39.4,27.8,29.56,NW,315,4.3,6.3,63,0.00,,,0.00,WUHU216HW,2013-04-05 04:10:00,
2013-04-04 23:15:00,39.2,27.6,29.56,NW,315,4.7,6.0,63,0.00,,,0.00,WUHU216HW,2013-04-05 04:15:00,
2013-04-04 23:20:00,38.9,27.3,29.56,NW,315,4.0,6.0,63,0.00,,,0.00,WUHU216HW,2013-04-05 04:20:00,
2013-04-04 23:25:00,38.5,27.4,29.56,North,0,3.8,6.3,64,0.00,,,0.00,WUHU216HW,2013-04-05 04:25:00,
2013-04-04 23:30:00,38.5,27.4,29.56,NW,315,4.3,6.9,64,0.00,,,0.00,WUHU216HW,2013-04-05 04:30:00,
2013-04-04 23:35:00,38.3,27.2,29.56,NNW,338,7.4,8.5,64,0.00,,,0.00,WUHU216HW,2013-04-05 04:35:00,
2013-04-04 23:40:00,38.2,27.4,29.56,NW,315,4.5,8.5,65,0.00,,,0.00,WUHU216HW,2013-04-05 04:40:00,
2013-04-04 23:45:00,38.0,27.2,29.56,NNW,338,5.6,8.5,65,0.00,,,0.00,WUHU216HW,2013-04-05 04:45:00,
2013-04-04 23:50:00,37.8,27.1,29.56,NW,315,4.3,5.6,65,0.00,,,0.00,WUHU216HW,2013-04-05 04:50:00,
2013-04-04 23:55:00,37.6,27.3,29.56,North,0,4.7,5.6,66,0.00,,,0.00,WUHU216HW,2013-04-05 04:55:00,